Regional Weather Roundup
Issued by NWS

Home | Current Version | Previous Version | Text Only | Print | Product List | Glossary Off
Versions: 1 2 3 4 5 6 7 8 9 10 11 12 13 14 15 16 17 18 19 20 21 22 23 24 25 26 27 28 29 30 31 32 33 34 35 36 37 38 39 40 41 42 43 44 45 46 47 48 49 50

000
ASUS43 KBIS 242202
RWRND

NORTH DAKOTA REGIONAL WEATHER ROUNDUP
NATIONAL WEATHER SERVICE BISMARCK ND
500 PM CDT SUN JUL 24 2016

NOTE: "FAIR" INDICATES FEW OR NO CLOUDS BELOW 12,000 FEET WITH NO
SIGNIFICANT WEATHER AND/OR OBSTRUCTIONS TO VISIBILITY.


NDZ001>003-009>011-017-242300-
NORTHWEST NORTH DAKOTA

CITY           SKY/WX    TMP DP  RH WIND       PRES   REMARKS
WILLISTON      MOSUNNY   87  50  27 NW9       30.00F
MINOT          SUNNY     84  55  36 NW15      29.99S
MINOT AFB      SUNNY     80  55  42 NW16      29.98S
$$

NDZ018>021-031>035-040>046-242300-
SOUTHWEST NORTH DAKOTA

CITY           SKY/WX    TMP DP  RH WIND       PRES   REMARKS
BISMARCK       SUNNY     84  53  34 NW14G26   30.02F
DICKINSON      MOSUNNY   82  48  30 NW8       30.05F
GARRISON         N/A     80  55  42 NW13      30.02F
HETTINGER ARPT PTSUNNY   88  42  20 VRB3      30.08S
$$

NDZ004>008-012>016-024-026-027-054-242300-
NORTHEAST NORTH DAKOTA

CITY           SKY/WX    TMP DP  RH WIND       PRES   REMARKS
GRAND FORKS    MOSUNNY   79  62  56 NW15      29.89S
GRND FRKS AFB  SUNNY     78  61  54 NW14      29.91S
DEVILS LAKE    SUNNY     77  58  51 NW18G24   29.96S
$$

NDZ022-023-025-028>030-036>039-047>053-242300-
SOUTHEAST NORTH DAKOTA

CITY           SKY/WX    TMP DP  RH WIND       PRES   REMARKS
FARGO          SUNNY     82  58  43 NW15G28   29.93R
JAMESTOWN      SUNNY     79  57  46 W16       29.98F
$$




USA.gov is the U.S. government's official web portal to all federal, state and local government web resources and services.